NOAA 16 DEB, 42364

Orbit data source: Space-Track

NOAA 16 DEB, 42364 is space debris in SSO originally from a launch on Thu, 21 Sep 2000 UTC launched from the Air Force Western Test Range (AFWTR). Debris objects in space refer to the collection of defunct objects orbiting the Earth. Examples of debris include non-operational satellites, rocket bodies, and fragments generated from explosions, collisions, or faulty payload assembly.

Loading next visibility...
Identifier
42364, 2000-055RG
Orbit
SSO
Country
Flag of USUS
Related business
Manufacturer
Unknown
Mission
Spacecraft
Bus & Motor
Unknown
Mass
Unknown
Launch date (UTC)
2000-09-21 (25 years ago)
Launch vehicle
Unknown
Launch site
Air Force Western Test Range (AFWTR)
Object type
Payload
Rocket body
Debris
Shape & HBR
Unknown shape, 0.1 m
Radar Cross Section
Small (<0.1 m²)

Expand to show TLE details & history
Last TLE update: 2 days ago

TLE from 2 days ago
0 NOAA 16 DEB
1 42364U 00055RG  26035.55823969  .00011770  00000-0  33418-2 0  9999
2 42364  98.7943 147.6249 0036690 340.0115  19.9636 14.45172767509789
Epoch: 2026-02-04T13:23Z
TLE epoch observation values (Epoch: 2026-02-04T13:23:51.909Z)
Latitude
0.00001°
Longitude
171.93551°
Altitude
719.859 km
Speed
7.508 km/s
True Right ascension
09h 50m 29s
True Declination
0° 00' 00"
Sunlit
Object was in full shadow at epoch
Visualization orbit readout
Latitude
Unknown
Longitude
Unknown
Altitude
Unknown
Speed
Unknown
Apparent Right ascension
Unknown
Apparent Declination
Unknown
Sunlit
N/A
Visualization observer readout
Local Sidereal Time
15:01:20
Azimuth
Unknown
Elevation
Unknown
Doppler factor
Unknown
Orbital elements
Apogee altitude
764.699 km
Perigee altitude
712.476 km
Semi-major axis
7,116.725 km
Eccentricity
0.00367
Inclination
98.7943°
RAAN
147.6249°
Arg. of periapsis
340.0115°
True anomaly
20.10777°
Mean anomaly
19.9636°
Eccentric anomaly
20.03562°
Mean motion
3.61512 °/min
Orbital period
99.58 mins
BSTAR
0.0033418
Loading maneuver chart data...
Computing Atmospheric mass density...
Loading historical data...
Loading historical data...
Loading historical data...
Loading historical data...
Loading historical data...
Loading historical data...
Loading historical data...

Documentation

Showing up to 5 results
|